Theta_e
314 315 315 314 314 314 314 314 314 315 315 315 314 312 312 310 309 308 306 304 304 303 302 301 299 299 298 298 299 300 300 300 300 300 300 299 298 297 296 295 295 295 294
314 315 314 314 314 314 314 314 315 315 315 315 314 313 312 311 309 308 306 304 303 302 302 300 299 298 298 297 298 299 300 300 299 299 299 298 297 297 296 295 295 295 295
314 315 313 313 313 314 314 314 314 314 314 313 312 311 310 309 308 306 305 304 303 302 302 300 299 298 297 297 298 298 299 299 299 298 298 298 297 296 296 296 295 295 294
312 314 314 314 314 314 315 314 313 313 313 313 312 312 312 311 311 310 308 306 304 303 302 300 298 297 297 296 297 297 298 298 298 298 297 298 297 296 295 295 295 294 293
314 314 314 314 315 314 315 314 313 312 311 312 312 312 311 310 310 309 308 306 304 303 301 300 298 297 296 296 296 297 297 297 297 297 297 297 297 296 295 295 294 293 292
313 313 314 314 313 313 314 315 313 313 312 310 310 310 310 310 310 309 308 306 304 303 302 300 299 298 297 295 295 296 296 296 296 296 296 296 296 296 296 294 293 293 293
313 312 313 313 312 312 312 312 312 312 312 311 310 309 309 309 309 309 309 308 306 304 303 302 301 299 297 295 295 295 296 296 296 296 296 296 295 295 295 293 292 291 292
312 313 312 312 312 311 311 311 312 312 311 311 310 310 309 308 307 308 308 307 307 306 305 302 300 299 297 296 295 294 295 295 295 295 295 295 294 294 293 292 291 290 290
312 312 312 313 311 312 311 312 311 311 311 311 309 310 311 309 308 308 307 306 306 305 305 303 302 300 298 296 295 294 294 294 294 294 294 294 294 294 293 292 290 290 290
308 307 309 311 309 307 307 307 308 308 309 309 309 309 309 309 309 307 307 307 306 305 304 303 302 300 298 296 295 294 293 294 294 294 294 294 294 293 292 291 289 289 288
304 305 305 306 306 306 306 306 306 305 305 305 304 305 306 307 307 307 307 307 306 306 305 303 302 301 299 297 295 294 293 293 293 294 294 294 293 293 292 290 289 288 288
300 301 302 301 303 304 305 304 304 305 306 306 306 306 305 305 306 305 306 307 307 306 305 304 302 301 300 298 296 295 293 293 293 293 293 293 293 292 291 290 288 288 287
296 298 299 299 298 297 298 299 299 299 300 302 304 305 305 304 304 305 305 305 305 307 306 304 303 302 300 299 297 295 294 293 293 293 293 293 292 292 291 290 288 287 286
293 294 295 296 296 295 295 296 297 297 297 298 300 301 303 306 306 303 302 303 304 303 304 306 303 301 301 300 298 296 294 293 292 292 292 292 292 291 291 288 287 286 286
293 294 293 296 294 293 293 292 293 296 297 296 298 298 303 305 304 305 303 301 302 304 302 301 302 301 299 300 299 297 295 294 292 291 291 291 291 290 289 288 287 286 286
293 294 292 294 291 291 292 293 292 292 295 297 296 297 297 299 301 302 302 301 300 300 300 301 299 298 299 299 298 297 295 294 293 291 291 290 290 290 289 287 286 286 286
291 294 290 288 288 288 288 288 289 290 291 294 293 295 297 298 297 298 297 298 299 299 299 299 298 299 297 297 296 295 294 294 292 291 290 290 290 289 287 286 286 286 286
291 289 288 288 288 288 287 287 287 288 288 289 292 293 293 296 298 297 296 294 294 296 297 297 297 297 296 295 295 294 294 292 292 291 290 289 289 289 287 286 286 286 286
289 287 285 285 285 285 285 285 286 287 287 287 288 290 291 291 295 297 297 294 291 292 293 294 295 294 295 295 294 293 293 292 291 290 288 288 288 287 286 285 284 285 285
287 286 285 284 284 285 285 284 285 285 285 284 285 287 288 290 291 296 297 295 291 289 290 291 292 292 292 293 292 292 292 290 289 288 288 287 286 286 285 285 285 285 285
287 286 285 284 284 284 284 284 285 285 285 285 284 285 287 287 290 293 296 296 295 291 289 288 288 290 290 290 290 290 290 289 288 287 287 286 285 284 284 284 284 284 283
285 285 284 284 284 284 283 283 284 284 284 284 284 284 285 286 287 290 293 295 294 295 291 289 287 287 287 288 287 288 289 288 288 287 287 286 285 284 283 282 282 282 282
283 283 282 283 283 283 283 282 283 281 282 283 284 284 284 284 285 286 290 292 293 294 294 289 287 287 287 286 285 284 283 286 285 285 286 285 283 282 280 279 278 278 281
281 280 280 281 282 283 282 280 279 278 278 279 282 283 283 283 283 285 286 290 291 293 292 294 292 288 286 286 284 283 284 282 283 283 282 282 281 279 279 278 278 280 280
280 278 277 276 277 276 275 275 275 273 273 274 277 279 281 281 281 283 285 286 290 290 291 294 294 293 292 291 287 285 284 282 283 282 281 279 278 278 278 278 278 278 278
276 274 273 272 272 271 271 269 268 268 269 271 273 273 274 277 279 280 282 284 286 287 288 287 291 292 292 290 287 283 283 283 282 283 281 279 280 279 280 279 278 277 277
Wind_Speed
50 47 42 39 37 33 31 32 35 37 40 41 44 47 47 47 47 47 46 44 43 41 40 38 35 33 30 26 24 23 19 15 14 12 11 12 9 5 6 4 1 1 1
46 46 43 34 30 28 25 24 27 34 38 42 44 46 44 46 47 47 47 47 46 44 42 40 38 35 32 31 29 26 22 19 15 10 10 3 7 8 9 9 8 3 5
39 34 37 34 27 23 22 22 23 27 35 40 43 45 44 46 48 50 49 49 47 45 45 41 39 36 34 33 30 28 25 22 16 12 7 3 3 4 10 10 8 9 8
26 32 35 31 31 22 16 19 25 31 33 36 39 44 47 48 48 48 47 48 48 48 46 43 40 38 36 34 32 30 27 24 20 14 11 10 11 6 5 7 7 9 9
22 27 29 32 24 21 19 19 21 27 32 35 36 39 43 45 45 44 45 47 48 48 47 44 42 40 38 36 35 34 31 27 25 20 14 12 12 13 13 12 10 10 8
28 29 31 32 23 15 17 20 20 22 27 31 33 35 39 42 42 42 41 45 47 47 46 44 43 42 41 40 38 35 32 29 26 22 18 15 14 15 15 15 14 13 9
29 38 37 35 27 18 15 16 17 18 20 24 28 31 34 36 38 38 40 41 44 48 48 47 47 46 43 41 39 37 35 33 29 24 21 19 17 16 17 17 16 14 12
28 36 37 33 27 20 16 14 13 14 16 18 23 26 30 36 37 38 39 40 39 41 44 47 46 44 42 41 41 39 37 34 32 29 25 21 19 18 16 16 15 15 13
23 30 29 31 21 21 15 13 12 13 15 18 22 22 25 32 37 36 37 38 37 38 39 41 44 45 44 43 43 42 40 38 35 31 27 24 21 20 20 18 17 15 12
32 27 25 20 19 23 25 23 20 21 22 21 21 25 28 30 33 36 38 37 37 39 39 38 40 44 45 45 45 45 42 41 38 35 31 28 24 22 21 20 19 17 16
30 29 26 21 21 20 22 22 22 24 29 32 31 31 32 35 36 39 39 40 41 41 41 40 39 40 44 47 47 46 44 43 41 38 36 31 27 24 22 22 21 20 19
33 31 28 28 28 27 27 30 28 23 20 23 26 29 33 36 40 44 44 44 45 44 42 41 41 41 42 46 49 48 47 47 45 42 39 35 31 28 25 24 23 22 21
33 32 34 34 34 35 35 34 33 36 34 29 25 25 26 30 35 41 46 49 50 48 48 47 45 44 44 47 50 50 49 49 47 44 42 38 34 30 27 26 25 23 22
33 34 37 36 36 40 39 40 39 37 40 39 38 33 29 30 31 31 40 47 50 52 52 52 50 48 45 47 49 50 51 50 50 48 45 41 36 32 29 28 25 23 20
32 32 36 36 39 40 44 44 42 41 41 42 40 43 35 30 30 34 35 41 47 49 52 54 53 50 49 49 51 52 53 53 53 51 48 43 37 34 31 30 27 23 22
23 25 32 32 40 40 41 45 46 43 41 42 43 40 39 35 30 29 31 35 42 45 49 52 52 53 54 53 50 51 54 55 54 54 51 46 41 39 35 32 28 25 23
22 22 31 31 35 36 38 39 42 45 41 39 42 43 41 38 39 31 28 32 37 41 47 51 52 51 55 52 50 53 53 55 57 55 52 48 45 41 36 32 29 27 23
20 27 29 32 33 35 36 39 39 42 44 42 42 44 43 40 40 40 31 29 34 38 43 46 48 48 52 49 49 53 55 56 55 54 53 50 46 43 38 33 30 27 24
26 31 31 31 33 36 36 39 42 43 44 46 45 45 46 44 39 37 36 29 30 37 41 41 42 49 50 47 50 53 56 56 56 55 53 49 46 40 37 35 30 27 24
31 34 33 33 34 35 38 41 43 44 47 48 47 48 44 42 41 36 34 31 27 31 35 37 41 45 47 47 50 54 54 54 56 54 53 50 45 41 39 36 32 29 24
35 35 37 39 41 40 42 44 47 50 51 53 54 48 48 43 40 36 34 31 27 24 27 33 36 39 43 43 47 50 54 54 57 57 52 47 44 41 39 36 33 27 23
37 36 39 41 42 45 47 49 51 51 53 56 56 56 50 49 43 37 35 33 28 26 25 26 34 35 38 39 43 47 52 48 49 53 50 47 44 42 39 35 31 27 26
41 41 44 48 50 51 52 55 58 58 57 56 61 58 56 51 49 40 37 35 32 28 26 27 32 32 35 36 42 42 43 44 48 50 47 42 42 40 34 29 25 26 22
47 46 49 54 58 58 60 62 62 61 61 62 59 62 57 54 47 48 40 36 37 36 34 30 30 32 33 35 39 39 43 37 44 45 42 39 38 33 33 32 30 24 21
52 51 50 54 63 63 65 64 64 61 62 62 63 58 59 52 49 47 44 38 38 41 44 37 35 33 34 37 39 46 49 47 44 38 36 35 36 37 36 33 27 24 22
54 53 56 55 60 60 64 59 55 56 58 59 59 56 52 51 46 42 46 39 39 40 39 42 38 38 33 30 34 44 52 52 44 39 43 45 45 42 37 33 29 26 21
Wind_Direction
296 298 298 298 297 293 284 269 258 250 242 238 237 235 235 235 233 232 231 230 230 230 231 230 229 229 230 234 234 238 244 257 274 293 312 318 304 272 223 191 14 150 334
298 302 305 307 309 306 294 272 258 252 249 244 239 236 235 235 234 232 229 228 228 229 230 230 230 230 228 228 231 235 240 248 256 275 304 265 289 258 243 252 281 233 346
293 313 316 318 317 316 302 282 264 254 249 245 238 235 233 233 231 228 227 227 227 228 230 229 230 230 230 231 234 235 237 241 243 258 273 262 212 208 255 247 242 261 307
321 330 327 330 324 318 307 284 262 252 246 242 239 236 237 234 235 235 232 229 227 227 228 228 228 229 230 230 232 232 233 240 243 243 257 273 268 255 254 268 243 262 305
354 343 343 332 319 304 307 286 265 254 249 243 239 236 236 237 239 238 233 231 229 228 228 227 226 227 229 230 231 231 233 236 243 245 246 256 266 264 255 264 261 274 302
3 2 352 344 333 294 292 285 266 254 249 247 244 241 238 236 236 237 236 234 231 230 228 228 228 229 229 228 229 230 232 236 239 241 246 254 258 268 265 263 274 286 292
9 10 1 350 345 326 300 289 268 261 258 251 249 246 244 241 240 239 239 235 232 231 230 228 227 227 227 228 228 229 232 234 236 243 247 252 261 268 267 267 273 280 290
5 2 4 359 356 350 345 326 302 283 266 260 256 251 247 243 241 242 241 240 238 236 235 232 231 231 230 229 229 229 231 233 234 236 241 249 257 263 264 262 265 276 284
341 349 347 346 9 13 7 354 333 321 308 287 268 256 255 252 247 245 246 246 246 241 239 236 235 234 230 229 229 229 230 231 233 236 240 248 257 265 266 265 265 264 265
349 359 354 348 344 3 358 352 344 333 318 301 288 274 264 259 256 251 248 248 246 244 241 237 234 234 234 231 229 229 228 229 232 235 240 246 254 259 263 264 263 264 258
10 10 12 9 3 359 356 345 338 331 326 316 302 290 279 273 267 260 254 252 250 247 244 239 235 233 233 232 231 230 229 230 232 234 238 242 248 255 260 263 266 265 262
6 5 5 5 7 7 2 5 2 354 328 304 300 299 292 284 278 269 262 256 252 250 247 246 241 235 232 232 232 232 230 230 230 233 236 240 245 248 252 257 261 261 262
4 358 357 359 2 5 5 2 2 4 358 343 317 299 292 293 288 280 271 264 258 252 248 245 243 237 231 230 231 233 233 232 232 232 234 238 241 246 250 252 254 255 259
1 1 359 355 355 356 355 353 353 356 355 352 348 325 310 305 303 297 278 270 262 257 253 251 246 240 234 231 231 232 231 231 232 232 231 233 239 244 248 251 251 248 257
352 353 350 347 343 348 348 348 347 345 346 351 351 349 324 305 301 296 288 278 269 264 259 255 249 243 238 232 229 229 229 229 230 230 230 231 233 239 243 245 245 245 253
342 339 342 341 340 343 340 338 339 340 339 341 344 348 354 334 301 289 288 282 276 268 261 256 250 246 241 236 232 230 229 229 229 229 227 228 231 235 238 241 241 244 252
330 327 333 335 332 334 334 333 331 333 336 335 335 336 341 347 343 306 288 278 275 272 264 258 252 247 244 238 234 231 229 228 228 227 227 227 229 231 233 236 238 242 250
324 322 327 325 323 326 328 328 330 331 331 331 326 328 331 332 338 341 312 296 281 270 264 258 253 247 242 238 235 234 231 228 228 228 229 229 230 230 231 232 233 237 242
314 320 321 321 323 326 328 327 329 327 328 328 325 323 324 324 324 331 335 315 290 274 261 257 251 243 239 234 230 232 232 228 224 224 226 228 228 227 227 227 227 233 239
312 314 317 317 318 324 327 327 328 328 328 324 321 319 320 316 316 319 325 324 303 278 267 260 253 247 241 234 230 230 232 228 224 222 224 225 225 225 227 227 228 231 235
308 308 310 312 316 319 320 320 320 321 322 320 319 316 314 315 314 313 307 309 307 292 275 264 256 250 242 235 231 231 232 227 223 222 220 220 222 223 226 227 227 230 229
305 303 306 306 307 309 311 311 310 313 313 313 313 315 312 308 308 303 299 292 289 294 282 268 258 250 243 232 230 230 235 231 229 225 222 221 221 221 222 226 224 224 230
306 305 305 305 303 304 305 305 307 307 307 307 308 308 306 303 300 297 289 284 279 274 272 260 252 250 246 234 224 212 223 229 223 225 225 220 219 220 214 209 206 210 225
306 307 305 303 302 303 302 302 303 303 303 302 300 300 299 297 296 292 286 279 273 265 258 259 256 249 240 234 219 207 214 224 223 219 217 213 211 205 210 199 211 218 222
304 305 302 300 300 302 300 300 300 301 300 299 297 295 292 292 291 287 285 279 273 269 262 257 258 253 251 240 226 216 207 213 225 213 206 201 198 204 207 211 217 218 218
304 301 300 298 299 300 299 299 299 298 298 295 292 291 290 288 285 282 281 278 273 274 269 260 255 257 254 246 239 217 206 216 217 213 208 205 209 208 206 211 213 215 218